User: anonymous   Login
Location: Unspecified
(0.0000°N, 0.0000°E)
Time: 20:42:17
(UTC+00:00)
Language:

STARLINK-2139 - Orbit

View from above orbital plane
View from above orbital plane
View from above satellite
View from above satellite

Ground track
Ground track

The orbit is defined by the following mean orbital elements,

1 48554U          26145.35170473 +.00000000 +00000-0 +48325-4 0 00003
2 48554  53.1590 130.1450 0001444  94.9757 265.1409 15.31703188    03
Epoch (UTC): 25 May 2026 08:26:27
Eccentricity: 0.0001444
inclination: 53.1590°
perigee height: 470 km
apogee height: 472 km
right ascension of ascending node: 130.1450°
argument of perigee: 94.9757°
revolutions per day: 15.31703188
mean anomaly at epoch: 265.1409°

The dashed part of the orbit path shows where the satellite is in the earth's shadow,  

DLR